TimePST,TemperatureF,Dew PointF,Humidity,Sea Level PressureIn,VisibilityMPH,Wind Direction,Wind SpeedMPH,Gust SpeedMPH,PrecipitationIn,Events,Conditions,WindDirDegrees,DateUTC
12:03 AM,28.4,24.8,86,30.52,9.0,West,3.5,-,N/A,,Overcast,270,2013-01-01 08:03:00
12:53 AM,28.9,26.1,89,30.55,9.0,West,3.5,-,N/A,,Overcast,270,2013-01-01 08:53:00
1:53 AM,28.9,26.1,89,30.57,8.0,West,4.6,-,N/A,,Overcast,280,2013-01-01 09:53:00
2:53 AM,28.9,26.1,89,30.58,8.0,SW,4.6,-,N/A,,Overcast,230,2013-01-01 10:53:00
3:53 AM,28.9,25.0,85,30.58,7.0,SW,5.8,-,N/A,,Overcast,220,2013-01-01 11:53:00
4:48 AM,28.4,24.8,86,30.57,8.0,Calm,Calm,-,N/A,,Overcast,0,2013-01-01 12:48:00
4:53 AM,28.0,25.0,88,30.59,8.0,WSW,3.5,-,N/A,,Overcast,250,2013-01-01 12:53:00
5:53 AM,28.9,25.0,85,30.61,8.0,Calm,Calm,-,N/A,,Overcast,0,2013-01-01 13:53:00
6:53 AM,28.0,25.0,88,30.61,9.0,Calm,Calm,-,N/A,,Overcast,0,2013-01-01 14:53:00
7:01 AM,28.4,24.8,86,30.59,9.0,Calm,Calm,-,N/A,,Overcast,0,2013-01-01 15:01:00
7:53 AM,28.0,25.0,88,30.63,10.0,Calm,Calm,-,N/A,,Overcast,0,2013-01-01 15:53:00
8:51 AM,28.4,24.8,86,30.60,10.0,South,3.5,-,N/A,,Overcast,180,2013-01-01 16:51:00
8:53 AM,28.9,25.0,85,30.62,10.0,South,4.6,-,N/A,,Overcast,180,2013-01-01 16:53:00
9:53 AM,30.0,26.1,85,30.65,10.0,Calm,Calm,-,N/A,,Overcast,0,2013-01-01 17:53:00
10:53 AM,30.0,25.0,82,30.66,10.0,Calm,Calm,-,N/A,,Overcast,0,2013-01-01 18:53:00
11:53 AM,30.0,25.0,82,30.65,10.0,Calm,Calm,-,N/A,,Overcast,0,2013-01-01 19:53:00
12:53 PM,30.9,25.0,79,30.63,10.0,Calm,Calm,-,N/A,,Overcast,0,2013-01-01 20:53:00
1:53 PM,30.9,25.0,79,30.63,10.0,Calm,Calm,-,N/A,,Overcast,0,2013-01-01 21:53:00
2:53 PM,30.9,25.0,79,30.63,10.0,NE,3.5,-,N/A,,Overcast,50,2013-01-01 22:53:00
3:53 PM,30.9,26.1,82,30.63,8.0,Calm,Calm,-,N/A,,Overcast,0,2013-01-01 23:53:00
4:53 PM,30.0,26.1,85,30.64,9.0,Calm,Calm,-,N/A,,Overcast,0,2013-01-02 00:53:00
5:53 PM,30.0,26.1,85,30.65,8.0,Calm,Calm,-,N/A,,Overcast,0,2013-01-02 01:53:00
6:53 PM,30.0,27.0,88,30.63,8.0,Calm,Calm,-,N/A,,Overcast,0,2013-01-02 02:53:00
7:53 PM,30.0,26.1,85,30.64,6.0,Calm,Calm,-,N/A,,Overcast,0,2013-01-02 03:53:00
8:36 PM,30.2,24.8,80,30.62,8.0,Calm,Calm,-,N/A,,Overcast,0,2013-01-02 04:36:00
8:53 PM,30.9,25.0,79,30.63,8.0,Calm,Calm,-,N/A,,Overcast,0,2013-01-02 04:53:00
9:53 PM,30.0,25.0,82,30.64,9.0,North,3.5,-,N/A,,Overcast,360,2013-01-02 05:53:00
10:53 PM,30.9,25.0,79,30.65,10.0,NNE,5.8,-,N/A,,Overcast,20,2013-01-02 06:53:00
11:41 PM,30.2,24.8,80,30.63,10.0,NNE,4.6,-,N/A,,Overcast,30,2013-01-02 07:41:00
11:53 PM,30.0,24.1,79,30.65,10.0,NNE,4.6,-,N/A,,Overcast,20,2013-01-02 07:53:00